Location: Pianadetto
(44.4000°N, 10.1000°E)
Time: 23:49:10
(UTC+00:00)

USA 267 - Pass Details

Date: 26 May 2022
Orbit: 1101 x 1106 km, 123.0° (Epoch: 28 June)

Event Time Altitude Azimuth Distance (km) Brightness Sun altitude
Exits shadow 01:02:05 27° 239° (WSW) 1,964 4.1 -20.2°
Drops below altitude 10° 01:07:10 10° 291° (WNW) 2,962 5.4 -19.8°
Sets 01:10:06 0° 303° (WNW) 3,924 6.2 -19.6°
